Miscellaneous Local Product
Issued by NWS Hastings, NE

Home | Current Version | Previous Version | Graphics & Text | Print | Product List | Glossary On
Versions: 1 2 3 4 5 6 7 8 9 10 11 12 13 14 15 16 17 18 19 20 21 22 23 24 25 26 27 28 29 30 31 32 33 34 35 36 37 38 39 40 41 42 43 44 45 46 47 48 49 50
000
AXUS43 KGID 190702
MISGRI

GID CWA HOURLY WEATHER ROUNDUP
NATIONAL WEATHER SERVICE HASTINGS NE
100 AM CST FRI DEC 19 2014

NOTE: "FAIR" INDICATES FEW OR NO CLOUDS BELOW 12,000 FEET WITH NO
SIGNIFICANT WEATHER AND/OR OBSTRUCTIONS TO VISIBILITY.

...SOUTH CENTRAL NEBRASKA...

CITY           SKY/WX    TMP DP  RH WIND       PRES   REMARKS
GRAND ISLAND   CLOUDY    29  25  85 SW7       30.18F WCI  22
HASTINGS       CLOUDY    30  25  81 W5        30.17F WCI  25
KEARNEY        CLOUDY    28  25  86 SW8       30.17S WCI  20
ORD            NOT AVBL
YORK           CLOUDY    28  28 100 S5        30.20F WCI  23
AURORA         CLOUDY    30  28  92 SW7       30.19S WCI  23
LEXINGTON      CLOUDY    30  28  91 W5        30.15S FOG     WCI  25
HOLDREGE       CLOUDY    29  27  92 SW6       30.16S WCI  23
HEBRON         CLOUDY    30  27  87 CALM      30.23S FOG

...NEBRASKA PANHANDLE...

CITY           SKY/WX    TMP DP  RH WIND       PRES   REMARKS
CHADRON        PTCLDY    15  11  83 SW6       30.06F WCI   6
ALLIANCE       PTCLDY     6   3  87 SW7       30.06F WCI  -6
SCOTTSBLUFF    PTCLDY     8   5  87 CALM      30.08S
SIDNEY         PTCLDY    25  16  68 W10       30.08F WCI  15

...WESTERN AND NORTH CENTRAL NEBRASKA...

CITY           SKY/WX    TMP DP  RH WIND       PRES   REMARKS
VALENTINE      PTCLDY    13  10  88 SW6       30.07F WCI   4
AINSWORTH      PTCLDY    17  16  94 SW5       30.08F WCI  10
ONEILL         CLOUDY    30  29  96 SW7       30.13F FOG     WCI  23
BROKEN BOW     CLOUDY    27  26  96 SW8       30.11F FOG     WCI  19
IMPERIAL       PTCLDY    19  14  81 SW3       30.11S HAZE
NORTH PLATTE   FOG       18  14  84 CALM      30.11F VSB 1/4
MCCOOK         FOG       27  26  96 SW7       30.15S VSB 1/4 WCI  19

...EASTERN NEBRASKA...

CITY           SKY/WX    TMP DP  RH WIND       PRES   REMARKS
NORFOLK        CLOUDY    30  26  85 S8        30.18F WCI  22
SO SIOUX CITY  CLOUDY    31  26  82 S6        30.22F WCI  25
TEKAMAH        CLOUDY    31  28  89 S6        30.24S WCI  25
COLUMBUS       CLOUDY    30  23  74 S5        30.21F WCI  25
ALBION         CLOUDY    29  24  82 S7        30.18S WCI  22
OMAHA EPPLEY   CLOUDY    31  27  85 S7        30.26F WCI  24
OFFUTT AFB     CLOUDY    31  28  91 S7        30.24F WCI  24
MILLARD        CLOUDY    31  28  88 S3        30.25S
LINCOLN        CLOUDY    31  29  92 S5        30.24F WCI  26
NEBRASKA CITY  CLOUDY    29  29 100 CALM      30.25F FOG
BEATRICE       CLOUDY    30  28  90 SW7       30.24S WCI  23
FALLS CITY     CLOUDY    30  27  88 CALM      30.25F FOG

...NORTHERN KANSAS...

CITY           SKY/WX    TMP DP  RH WIND       PRES   REMARKS
GOODLAND       PTCLDY    25  20  81 SW6       30.12S WCI  18
HILL CITY      CLOUDY    33  29  85 S5        30.18F WCI  29
NORTON         CLOUDY    30  27  86 SW8       30.16S WCI  23
PHILLIPSBURG   CLOUDY    36  30  80 S5        30.19F WCI  32
SMITH CENTER   CLOUDY    30  28  93 S5        30.21S WCI  25
BELOIT         CLOUDY    28  28 100 CALM      30.23F
HAYS           CLOUDY    32  25  74 S5        30.19F WCI  27
RUSSELL        CLOUDY    31  29  92 S6        30.20F WCI  25
CONCORDIA      CLOUDY    28  27  96 SW6       30.23F WCI  22
SALINA         CLOUDY    30  27  88 CALM      30.25F
TOPEKA         CLOUDY    33  29  85 CALM      30.27F



USA.gov is the U.S. government's official web portal to all federal, state and local government web resources and services.